Time,TemperatureF,DewpointF,PressureIn,WindDirection,WindDirectionDegrees,WindSpeedMPH,WindSpeedGustMPH,Humidity,HourlyPrecipIn,Conditions,Clouds,dailyrainin,SoftwareType,DateUTC
2013-03-19 00:02:00,30.0,11.0,-100.00,South,190,32.0,52.0,44,0.00,,,-99.99,,2013-03-19 00:02:00,
2013-03-19 00:12:00,30.0,11.0,-100.00,SSE,150,38.0,49.0,45,0.00,,,-99.99,,2013-03-19 00:12:00,
2013-03-19 00:22:00,29.0,11.0,-100.00,SW,230,30.0,49.0,44,0.00,,,-99.99,,2013-03-19 00:22:00,
2013-03-19 00:32:00,29.0,11.0,-100.00,SSW,210,32.0,45.0,45,0.00,,,-99.99,,2013-03-19 00:32:00,
2013-03-19 00:42:00,29.0,11.0,-100.00,SSE,165,34.0,44.0,45,0.00,,,-99.99,,2013-03-19 00:42:00,
2013-03-19 00:52:00,29.0,11.0,-100.00,SW,225,35.0,45.0,45,0.00,,,-99.99,,2013-03-19 00:52:00,
2013-03-19 01:02:00,29.0,11.0,-100.00,SSW,205,34.0,44.0,45,0.00,,,-99.99,,2013-03-19 01:02:00,
2013-03-19 01:12:00,29.0,11.0,-100.00,SW,220,34.0,45.0,45,0.00,,,-99.99,,2013-03-19 01:12:00,
2013-03-19 01:22:00,28.0,11.0,-100.00,SW,215,31.0,42.0,47,0.00,,,-99.99,,2013-03-19 01:22:00,
2013-03-19 01:32:00,28.0,11.0,-100.00,SW,220,29.0,41.0,49,0.00,,,-99.99,,2013-03-19 01:32:00,
2013-03-19 01:42:00,27.0,11.0,-100.00,SW,225,29.0,41.0,49,0.00,,,-99.99,,2013-03-19 01:42:00,
2013-03-19 01:52:00,27.0,11.0,-100.00,SW,215,31.0,37.0,50,0.00,,,-99.99,,2013-03-19 01:52:00,
2013-03-19 02:02:00,27.0,11.0,-100.00,SE,145,32.0,42.0,50,0.00,,,-99.99,,2013-03-19 02:02:00,
2013-03-19 02:12:00,27.0,11.0,-100.00,SSW,195,32.0,40.0,49,0.00,,,-99.99,,2013-03-19 02:12:00,
2013-03-19 02:22:00,27.0,11.0,-100.00,South,180,26.0,39.0,51,0.00,,,-99.99,,2013-03-19 02:22:00,
2013-03-19 02:32:00,27.0,12.0,-100.00,South,170,30.0,39.0,52,0.00,,,-99.99,,2013-03-19 02:32:00,
2013-03-19 02:42:00,26.0,12.0,-100.00,SE,145,22.0,35.0,54,0.00,,,-99.99,,2013-03-19 02:42:00,
2013-03-19 02:52:00,26.0,12.0,-100.00,SW,220,25.0,35.0,55,0.00,,,-99.99,,2013-03-19 02:52:00,
2013-03-19 03:02:00,26.0,13.0,-100.00,SSW,210,29.0,36.0,55,0.00,,,-99.99,,2013-03-19 03:02:00,
2013-03-19 03:12:00,26.0,13.0,-100.00,SE,140,27.0,37.0,56,0.00,,,-99.99,,2013-03-19 03:12:00,
2013-03-19 03:22:00,26.0,13.0,-100.00,South,185,30.0,38.0,58,0.00,,,-99.99,,2013-03-19 03:22:00,
2013-03-19 03:33:00,26.0,13.0,-100.00,South,190,26.0,36.0,59,0.00,,,-99.99,,2013-03-19 03:33:00,
2013-03-19 03:43:00,26.0,14.0,-100.00,SSE,160,25.0,37.0,59,0.00,,,-99.99,,2013-03-19 03:43:00,
2013-03-19 03:53:00,26.0,14.0,-100.00,SW,220,21.0,32.0,61,0.00,,,-99.99,,2013-03-19 03:53:00,
2013-03-19 04:03:00,26.0,14.0,-100.00,SSW,205,22.0,32.0,62,0.00,,,-99.99,,2013-03-19 04:03:00,
2013-03-19 04:13:00,26.0,15.0,-100.00,SSW,210,24.0,33.0,63,0.00,,,-99.99,,2013-03-19 04:13:00,
2013-03-19 04:23:00,26.0,15.0,-100.00,SSW,205,22.0,32.0,63,0.00,,,-99.99,,2013-03-19 04:23:00,
2013-03-19 04:33:00,26.0,15.0,-100.00,South,190,21.0,31.0,63,0.00,,,-99.99,,2013-03-19 04:33:00,
2013-03-19 04:43:00,26.0,15.0,-100.00,SSW,200,24.0,31.0,63,0.00,,,-99.99,,2013-03-19 04:43:00,
2013-03-19 04:52:00,25.0,14.0,-100.00,SW,215,27.0,36.0,62,0.00,,,-99.99,,2013-03-19 04:52:00,
2013-03-19 05:02:00,25.0,14.0,-100.00,South,175,26.0,40.0,62,0.00,,,-99.99,,2013-03-19 05:02:00,
2013-03-19 05:12:00,26.0,14.0,-100.00,WSW,240,27.0,34.0,61,0.00,,,-99.99,,2013-03-19 05:12:00,
2013-03-19 05:22:00,26.0,14.0,-100.00,South,180,31.0,40.0,61,0.00,,,-99.99,,2013-03-19 05:22:00,
2013-03-19 05:32:00,25.0,14.0,-100.00,South,170,30.0,41.0,60,0.00,,,-99.99,,2013-03-19 05:32:00,
2013-03-19 05:42:00,25.0,14.0,-100.00,SE,145,29.0,35.0,60,0.00,,,-99.99,,2013-03-19 05:42:00,
2013-03-19 05:52:00,25.0,13.0,-100.00,SW,220,29.0,42.0,60,0.00,,,-99.99,,2013-03-19 05:52:00,
2013-03-19 06:02:00,25.0,13.0,-100.00,SSE,155,30.0,41.0,60,0.00,,,-99.99,,2013-03-19 06:02:00,
2013-03-19 06:12:00,25.0,13.0,-100.00,South,175,29.0,41.0,60,0.00,,,-99.99,,2013-03-19 06:12:00,
2013-03-19 06:22:00,25.0,13.0,-100.00,SW,220,24.0,37.0,60,0.00,,,-99.99,,2013-03-19 06:22:00,
2013-03-19 06:32:00,25.0,13.0,-100.00,South,190,34.0,45.0,60,0.00,,,-99.99,,2013-03-19 06:32:00,
2013-03-19 06:42:00,25.0,14.0,-100.00,SE,140,34.0,45.0,60,0.00,,,-99.99,,2013-03-19 06:42:00,
2013-03-19 06:52:00,25.0,14.0,-100.00,SW,230,30.0,44.0,61,0.00,,,-99.99,,2013-03-19 06:52:00,
2013-03-19 07:02:00,25.0,14.0,-100.00,South,175,35.0,45.0,61,0.00,,,-99.99,,2013-03-19 07:02:00,
2013-03-19 07:12:00,25.0,14.0,-100.00,SSE,150,32.0,43.0,61,0.00,,,-99.99,,2013-03-19 07:12:00,
2013-03-19 07:21:00,25.0,14.0,-100.00,SW,225,32.0,47.0,62,0.00,,,-99.99,,2013-03-19 07:21:00,
2013-03-19 07:32:00,25.0,14.0,-100.00,SW,225,31.0,40.0,62,0.00,,,-99.99,,2013-03-19 07:32:00,
2013-03-19 07:42:00,25.0,14.0,-100.00,WSW,240,25.0,43.0,62,0.00,,,-99.99,,2013-03-19 07:42:00,
2013-03-19 07:52:00,25.0,14.0,-100.00,SW,235,35.0,49.0,62,0.00,,,-99.99,,2013-03-19 07:52:00,
2013-03-19 08:02:00,25.0,14.0,-100.00,SW,230,31.0,45.0,63,0.00,,,-99.99,,2013-03-19 08:02:00,
2013-03-19 08:12:00,25.0,14.0,-100.00,SSW,200,32.0,46.0,63,0.00,,,-99.99,,2013-03-19 08:12:00,
2013-03-19 08:22:00,25.0,14.0,-100.00,SW,230,34.0,46.0,62,0.00,,,-99.99,,2013-03-19 08:22:00,
2013-03-19 08:32:00,25.0,13.0,-100.00,SSE,160,30.0,48.0,60,0.00,,,-99.99,,2013-03-19 08:32:00,
2013-03-19 08:42:00,24.0,13.0,-100.00,South,185,36.0,49.0,59,0.00,,,-99.99,,2013-03-19 08:42:00,
2013-03-19 08:52:00,24.0,12.0,-100.00,SSE,150,35.0,47.0,58,0.00,,,-99.99,,2013-03-19 08:52:00,
2013-03-19 09:02:00,24.0,11.0,-100.00,SW,230,29.0,40.0,58,0.00,,,-99.99,,2013-03-19 09:02:00,
2013-03-19 09:12:00,24.0,11.0,-100.00,SSE,165,31.0,40.0,58,0.00,,,-99.99,,2013-03-19 09:12:00,
2013-03-19 09:22:00,24.0,11.0,-100.00,SW,215,30.0,46.0,56,0.00,,,-99.99,,2013-03-19 09:22:00,
2013-03-19 09:32:00,24.0,10.0,-100.00,WSW,240,32.0,48.0,54,0.00,,,-99.99,,2013-03-19 09:32:00,
2013-03-19 09:42:00,23.0,9.0,-100.00,WSW,240,31.0,44.0,54,0.00,,,-99.99,,2013-03-19 09:42:00,
2013-03-19 09:52:00,23.0,9.0,-100.00,WSW,255,29.0,43.0,54,0.00,,,-99.99,,2013-03-19 09:52:00,
2013-03-19 10:03:00,23.0,9.0,-100.00,South,190,33.0,44.0,54,0.00,,,-99.99,,2013-03-19 10:03:00,
2013-03-19 10:12:00,23.0,9.0,-100.00,WSW,245,30.0,49.0,54,0.00,,,-99.99,,2013-03-19 10:12:00,
2013-03-19 10:23:00,22.0,8.0,-100.00,SW,220,29.0,46.0,55,0.00,,,-99.99,,2013-03-19 10:23:00,
2013-03-19 10:32:00,22.0,9.0,-100.00,South,180,27.0,41.0,56,0.00,,,-99.99,,2013-03-19 10:32:00,
2013-03-19 10:42:00,21.0,9.0,-100.00,SSW,210,28.0,40.0,58,0.00,,,-99.99,,2013-03-19 10:42:00,
2013-03-19 10:52:00,21.0,9.0,-100.00,SSE,165,24.0,34.0,59,0.00,,,-99.99,,2013-03-19 10:52:00,
2013-03-19 11:02:00,20.0,9.0,-100.00,South,180,23.0,35.0,61,0.00,,,-99.99,,2013-03-19 11:02:00,
2013-03-19 11:12:00,20.0,9.0,-100.00,South,170,21.0,35.0,62,0.00,,,-99.99,,2013-03-19 11:12:00,
2013-03-19 11:22:00,19.0,9.0,-100.00,SE,130,18.0,30.0,65,0.00,,,-99.99,,2013-03-19 11:22:00,
2013-03-19 11:32:00,19.0,10.0,-100.00,WSW,250,16.0,24.0,66,0.00,,,-99.99,,2013-03-19 11:32:00,
2013-03-19 11:42:00,18.0,10.0,-100.00,South,190,14.0,21.0,68,0.00,,,-99.99,,2013-03-19 11:42:00,
2013-03-19 11:52:00,18.0,10.0,-100.00,South,185,10.0,16.0,70,0.00,,,-99.99,,2013-03-19 11:52:00,
2013-03-19 12:02:00,18.0,10.0,-100.00,SSE,150,9.0,14.0,71,0.00,,,-99.99,,2013-03-19 12:02:00,
2013-03-19 12:12:00,18.0,10.0,-100.00,South,185,14.0,19.0,70,0.00,,,-99.99,,2013-03-19 12:12:00,
2013-03-19 12:22:00,18.0,10.0,-100.00,South,190,15.0,20.0,69,0.00,,,-99.99,,2013-03-19 12:22:00,
2013-03-19 12:33:00,18.0,10.0,-100.00,South,180,15.0,21.0,69,0.00,,,-99.99,,2013-03-19 12:33:00,
2013-03-19 12:42:00,18.0,10.0,-100.00,SSW,200,14.0,21.0,69,0.00,,,-99.99,,2013-03-19 12:42:00,
2013-03-19 12:52:00,18.0,10.0,-100.00,SW,230,15.0,21.0,70,0.00,,,-99.99,,2013-03-19 12:52:00,
2013-03-19 13:02:00,18.0,10.0,-100.00,South,175,15.0,19.0,70,0.00,,,-99.99,,2013-03-19 13:02:00,
2013-03-19 13:12:00,18.0,10.0,-100.00,South,175,17.0,22.0,70,0.00,,,-99.99,,2013-03-19 13:12:00,
2013-03-19 13:22:00,17.0,9.0,-100.00,SW,225,17.0,22.0,70,0.00,,,-99.99,,2013-03-19 13:22:00,
2013-03-19 13:32:00,17.0,10.0,-100.00,South,190,18.0,22.0,71,0.00,,,-99.99,,2013-03-19 13:32:00,
2013-03-19 13:42:00,18.0,10.0,-100.00,SW,220,19.0,26.0,71,0.00,,,-99.99,,2013-03-19 13:42:00,
2013-03-19 13:52:00,18.0,10.0,-100.00,SSW,210,21.0,28.0,70,0.00,,,-99.99,,2013-03-19 13:52:00,
2013-03-19 14:02:00,18.0,10.0,-100.00,SSW,205,21.0,28.0,69,0.00,,,-99.99,,2013-03-19 14:02:00,
2013-03-19 14:12:00,19.0,10.0,-100.00,SW,215,21.0,28.0,68,0.00,,,-99.99,,2013-03-19 14:12:00,
2013-03-19 14:22:00,20.0,11.0,-100.00,SW,220,22.0,28.0,67,0.00,,,-99.99,,2013-03-19 14:22:00,
2013-03-19 14:32:00,20.0,11.0,-100.00,SW,215,28.0,35.0,66,0.00,,,-99.99,,2013-03-19 14:32:00,
2013-03-19 14:42:00,21.0,11.0,-100.00,South,175,26.0,34.0,65,0.00,,,-99.99,,2013-03-19 14:42:00,
2013-03-19 14:52:00,21.0,11.0,-100.00,South,185,27.0,35.0,64,0.00,,,-99.99,,2013-03-19 14:52:00,
2013-03-19 15:02:00,22.0,11.0,-100.00,SSW,200,24.0,36.0,63,0.00,,,-99.99,,2013-03-19 15:02:00,
2013-03-19 15:12:00,22.0,11.0,-100.00,SSW,195,27.0,36.0,62,0.00,,,-99.99,,2013-03-19 15:12:00,
2013-03-19 15:22:00,22.0,10.0,-100.00,South,185,28.0,34.0,60,0.00,,,-99.99,,2013-03-19 15:22:00,
2013-03-19 15:33:00,22.0,10.0,-100.00,SSW,200,29.0,37.0,59,0.00,,,-99.99,,2013-03-19 15:33:00,
2013-03-19 15:43:00,23.0,11.0,-100.00,South,175,24.0,32.0,57,0.00,,,-99.99,,2013-03-19 15:43:00,
2013-03-19 15:53:00,23.0,10.0,-100.00,WSW,240,29.0,35.0,55,0.00,,,-99.99,,2013-03-19 15:53:00,
2013-03-19 16:03:00,24.0,10.0,-100.00,SSW,205,26.0,35.0,53,0.00,,,-99.99,,2013-03-19 16:03:00,
2013-03-19 16:13:00,24.0,9.0,-100.00,South,190,30.0,37.0,53,0.00,,,-99.99,,2013-03-19 16:13:00,
2013-03-19 16:23:00,25.0,9.0,-100.00,South,180,28.0,37.0,51,0.00,,,-99.99,,2013-03-19 16:23:00,
2013-03-19 16:34:00,25.0,9.0,-100.00,SSE,160,26.0,35.0,50,0.00,,,-99.99,,2013-03-19 16:34:00,
2013-03-19 16:43:00,25.0,9.0,-100.00,South,180,30.0,39.0,49,0.00,,,-99.99,,2013-03-19 16:43:00,
2013-03-19 16:53:00,26.0,9.0,-100.00,South,185,26.0,37.0,48,0.00,,,-99.99,,2013-03-19 16:53:00,
2013-03-19 17:03:00,26.0,9.0,-100.00,South,175,30.0,37.0,47,0.00,,,-99.99,,2013-03-19 17:03:00,
2013-03-19 17:13:00,26.0,9.0,-100.00,SW,220,32.0,39.0,47,0.00,,,-99.99,,2013-03-19 17:13:00,
2013-03-19 17:23:00,27.0,9.0,-100.00,SSE,165,30.0,40.0,46,0.00,,,-99.99,,2013-03-19 17:23:00,
2013-03-19 17:34:00,27.0,8.0,-100.00,South,170,29.0,38.0,44,0.00,,,-99.99,,2013-03-19 17:34:00,
2013-03-19 17:43:00,29.0,10.0,-100.00,West,270,22.0,37.0,44,0.00,,,-99.99,,2013-03-19 17:43:00,
2013-03-19 17:52:00,29.0,9.0,-100.00,SW,230,26.0,35.0,42,0.00,,,-99.99,,2013-03-19 17:52:00,
2013-03-19 18:03:00,28.0,8.0,-100.00,SSW,205,29.0,42.0,41,0.00,,,-99.99,,2013-03-19 18:03:00,
2013-03-19 18:13:00,29.0,8.0,-100.00,South,185,31.0,42.0,41,0.00,,,-99.99,,2013-03-19 18:13:00,
2013-03-19 18:23:00,29.0,8.0,-100.00,SW,220,32.0,43.0,40,0.00,,,-99.99,,2013-03-19 18:23:00,
2013-03-19 18:33:00,30.0,8.0,-100.00,SSE,150,32.0,42.0,39,0.00,,,-99.99,,2013-03-19 18:33:00,
2013-03-19 18:42:00,31.0,8.0,-100.00,SSE,160,28.0,43.0,38,0.00,,,-99.99,,2013-03-19 18:42:00,
2013-03-19 18:52:00,31.0,8.0,-100.00,South,170,29.0,41.0,38,0.00,,,-99.99,,2013-03-19 18:52:00,
2013-03-19 19:02:00,31.0,8.0,-100.00,SW,235,32.0,43.0,37,0.00,,,-99.99,,2013-03-19 19:02:00,
2013-03-19 19:12:00,31.0,8.0,-100.00,SSE,160,29.0,42.0,37,0.00,,,-99.99,,2013-03-19 19:12:00,
2013-03-19 19:22:00,31.0,8.0,-100.00,SSW,210,34.0,47.0,36,0.00,,,-99.99,,2013-03-19 19:22:00,
2013-03-19 19:32:00,31.0,8.0,-100.00,WSW,240,34.0,45.0,35,0.00,,,-99.99,,2013-03-19 19:32:00,
2013-03-19 19:42:00,33.0,8.0,-100.00,SW,215,27.0,42.0,35,0.00,,,-99.99,,2013-03-19 19:42:00,
2013-03-19 19:52:00,33.0,8.0,-100.00,WSW,255,30.0,44.0,34,0.00,,,-99.99,,2013-03-19 19:52:00,
2013-03-19 20:02:00,33.0,8.0,-100.00,SSW,205,33.0,42.0,33,0.00,,,-99.99,,2013-03-19 20:02:00,
2013-03-19 20:12:00,34.0,7.0,-100.00,SSE,160,29.0,44.0,32,0.00,,,-99.99,,2013-03-19 20:12:00,
2013-03-19 20:22:00,35.0,8.0,-100.00,West,265,29.0,42.0,31,0.00,,,-99.99,,2013-03-19 20:22:00,
2013-03-19 20:32:00,35.0,7.0,-100.00,SSW,205,30.0,38.0,30,0.00,,,-99.99,,2013-03-19 20:32:00,
2013-03-19 20:42:00,34.0,7.0,-100.00,SSE,165,31.0,42.0,30,0.00,,,-99.99,,2013-03-19 20:42:00,
2013-03-19 20:52:00,34.0,6.0,-100.00,SSE,155,31.0,40.0,30,0.00,,,-99.99,,2013-03-19 20:52:00,
2013-03-19 21:02:00,34.0,6.0,-100.00,SW,225,30.0,40.0,29,0.00,,,-99.99,,2013-03-19 21:02:00,
2013-03-19 21:12:00,34.0,6.0,-100.00,SSW,200,30.0,43.0,29,0.00,,,-99.99,,2013-03-19 21:12:00,
2013-03-19 21:22:00,34.0,6.0,-100.00,WSW,240,32.0,40.0,29,0.00,,,-99.99,,2013-03-19 21:22:00,
2013-03-19 21:33:00,35.0,6.0,-100.00,SE,140,29.0,44.0,29,0.00,,,-99.99,,2013-03-19 21:33:00,
2013-03-19 21:43:00,34.0,6.0,-100.00,SW,225,30.0,42.0,29,0.00,,,-99.99,,2013-03-19 21:43:00,
2013-03-19 21:52:00,35.0,6.0,-100.00,South,170,31.0,39.0,29,0.00,,,-99.99,,2013-03-19 21:52:00,
2013-03-19 22:03:00,34.0,6.0,-100.00,WSW,250,30.0,39.0,29,0.00,,,-99.99,,2013-03-19 22:03:00,
2013-03-19 22:12:00,35.0,6.0,-100.00,WSW,245,32.0,42.0,29,0.00,,,-99.99,,2013-03-19 22:12:00,
2013-03-19 22:23:00,35.0,6.0,-100.00,SSE,150,29.0,38.0,29,0.00,,,-99.99,,2013-03-19 22:23:00,
2013-03-19 22:33:00,35.0,6.0,-100.00,South,185,30.0,40.0,28,0.00,,,-99.99,,2013-03-19 22:33:00,
2013-03-19 22:43:00,36.0,6.0,-100.00,SSW,205,30.0,38.0,28,0.00,,,-99.99,,2013-03-19 22:43:00,
2013-03-19 22:52:00,36.0,6.0,-100.00,SW,220,27.0,37.0,27,0.00,,,-99.99,,2013-03-19 22:52:00,
2013-03-19 23:02:00,36.0,6.0,-100.00,SW,225,28.0,37.0,26,0.00,,,-99.99,,2013-03-19 23:02:00,
2013-03-19 23:12:00,36.0,5.0,-100.00,SW,220,20.0,32.0,26,0.00,,,-99.99,,2013-03-19 23:12:00,
2013-03-19 23:22:00,36.0,5.0,-100.00,West,270,22.0,34.0,26,0.00,,,-99.99,,2013-03-19 23:22:00,
2013-03-19 23:32:00,36.0,4.0,-100.00,South,190,21.0,35.0,25,0.00,,,-99.99,,2013-03-19 23:32:00,
2013-03-19 23:42:00,36.0,4.0,-100.00,SW,235,23.0,28.0,25,0.00,,,-99.99,,2013-03-19 23:42:00,
2013-03-19 23:52:00,36.0,4.0,-100.00,WSW,245,22.0,32.0,25,0.00,,,-99.99,,2013-03-19 23:52:00,